Location: Unspecified
(40.7945°N, 0.0000°E)
Time: 13:37:04
(UTC+00:00)

TIGRISAT - Pass Details

Date: 25 August 2019
Orbit: 605 x 690 km, 97.7° (Epoch: 23 September)

Event Time Altitude Azimuth Distance (km) Brightness Sun altitude
Rises 22:11:10 0° 354° (N) 3,025 ? -32.6°
Reaches altitude 10° 22:14:11 10° 333° (NNW) 2,090 ? -32.9°
Maximum altitude 22:16:54 16° 296° (WNW) 1,709 ? -33.2°
Enters shadow 22:18:35 13° 271° (W) 1,846 ? -33.3°
